DW1458 Weather Reports


Display with metric or nautical units.
time (UTC)temp
F
wind
direction
speed
MPH
gust
MPH
rain 1hr
in
rain 24hr
in
rain mn
in
humidity
%
barometer
mb
20260510001503 69 101 0.0 3.0 0.02 0.60 0.41 93 1012.8
20260510000004 69 96 2.0 5.0 0.02 0.61 0.41 93 1012.2
20260509234510 69 108 1.0 4.0 0.02 0.61 0.40 93 1012.8
20260509233013 69 113 0.0 2.0 0.02 0.62 0.40 93 1013.2
20260509231518 69 274 0.0 1.0 0.01 0.63 0.39 93 1013.2
20260509230013 69 274 0.0 2.0 0.02 0.64 0.39 92 1013.4
20260509224504 70 74 0.0 2.0 0.01 0.64 0.38 92 1013.5
20260509223012 70 98 0.0 1.0 0.02 0.65 0.38 92 1013.1
20260509221516 70 360 0.0 0.0 0.02 0.66 0.38 92 1013.2
20260509220017 70 360 0.0 2.0 0.01 0.66 0.37 91 1013.1
20260509214505 70 18 1.0 2.0 0.02 0.67 0.37 91 1012.8
20260509213010 70 302 0.0 2.0 0.01 0.67 0.36 91 1012.9
20260509211509 70 341 0.0 2.0 0.01 0.68 0.36 91 1013.0
20260509210015 70 201 0.0 2.0 0.02 0.69 0.36 91 1013.1
20260509204520 70 3 0.0 0.0 0.01 0.68 0.35 90 1013.2
20260509203007 70 3 0.0 4.0 0.02 0.69 0.35 89 1012.8
20260509201515 70 44 0.0 2.0 0.02 0.70 0.35 89 1011.8
20260509200014 70 67 1.0 7.0 0.01 0.69 0.34 89 1011.4
20260509194530 71 125 1.0 5.0 0.02 0.70 0.34 89 1011.3
20260509193025 71 146 0.0 4.0 0.01 0.70 0.33 90 1011.2
20260509191508 70 23 0.0 4.0 0.02 0.70 0.33 91 1011.4
20260509190013 70 236 1.0 3.0 0.02 0.71 0.33 90 1011.3
20260509184519 69 107 1.0 8.0 0.02 0.70 0.32 91 1011.1
20260509183021 69 111 2.0 7.0 0.02 0.71 0.32 91 1011.6
20260509181525 68 121 2.0 6.0 0.02 0.70 0.31 92 1012.4
20260509180011 68 108 2.0 4.0 0.02 0.70 0.31 93 1013.1
20260509174520 67 126 3.0 5.0 0.02 0.70 0.30 92 1013.3
20260509173029 67 117 1.0 6.0 0.02 0.70 0.30 92 1014.3
20260509171531 67 70 1.0 5.0 0.02 0.69 0.29 93 1014.9
20260509170015 66 136 1.0 4.0 0.03 0.70 0.29 93 1015.3
20260509164514 66 293 2.0 4.0 0.02 0.69 0.28 93 1016.0
20260509163019 65 326 1.0 3.0 0.03 0.69 0.28 93 1016.2
20260509161523 65 335 1.0 6.0 0.03 0.69 0.27 93 1016.0
20260509160024 65 288 2.0 8.0 0.02 0.68 0.26 93 1015.5
20260509154512 65 293 2.0 5.0 0.02 0.69 0.26 93 1016.0
20260509153032 65 354 2.0 8.0 0.01 0.68 0.25 93 1015.6
20260509151521 66 342 3.0 12.0 0.00 0.68 0.24 92 1015.4
20260509150024 67 343 8.0 15.0 0.01 0.68 0.24 92 1015.5
20260509144526 68 349 2.0 6.0 0.01 0.69 0.24 93 1014.4
20260509143015 69 351 3.0 5.0 0.01 0.69 0.24 94 1014.0
20260509141527 69 131 0.0 2.0 0.02 0.70 0.24 94 1013.3
20260509140025 69 221 0.0 2.0 0.01 0.70 0.23 94 1013.5
20260509134526 68 322 1.0 2.0 0.02 0.71 0.23 94 1013.5
20260509133012 68 360 1.0 2.0 0.02 0.73 0.23 94 1013.5
20260509131522 68 334 0.0 2.0 0.02 0.73 0.22 94 1013.2
20260509130004 68 133 0.0 3.0 0.02 0.75 0.22 94 1012.9
20260509124509 68 108 1.0 2.0 0.02 0.75 0.21 94 1012.5
20260509123010 68 114 0.0 2.0 0.03 0.77 0.21 94 1012.2
20260509121515 68 121 0.0 2.0 0.02 0.77 0.20 94 1012.0
20260509120018 68 75 0.0 2.0 0.03 0.77 0.20 94 1011.7
20260509114506 68 298 0.0 2.0 0.02 0.76 0.19 94 1011.6
20260509113009 68 1 1.0 3.0 0.02 0.76 0.18 94 1011.5
20260509111514 68 167 0.0 2.0 0.03 0.76 0.18 94 1011.0
20260509110020 68 338 0.0 2.0 0.02 0.75 0.17 94 1010.4
20260509104526 68 121 0.0 2.0 0.03 0.75 0.17 94 1010.3
20260509103007 67 120 0.0 3.0 0.03 0.74 0.16 94 1009.9
20260509101514 67 139 1.0 3.0 0.02 0.73 0.15 94 1009.5
20260509100016 67 115 2.0 2.0 0.03 0.73 0.15 94 1010.1
20260509094526 66 102 0.0 0.0 0.03 0.72 0.14 94 1010.6
20260509093024 66 102 0.0 5.0 0.02 0.72 0.13 94 1010.8
20260509091512 66 326 0.0 0.0 0.03 0.72 0.13 93 1011.2
20260509090021 66 326 0.0 3.0 0.03 0.71 0.12 93 1011.4
20260509084518 66 131 1.0 4.0 0.02 0.70 0.11 93 1011.5
20260509083024 66 97 0.0 2.0 0.03 0.70 0.11 93 1012.7
20260509081528 66 351 1.0 1.0 0.03 0.69 0.10 93 1013.3
20260509080016 66 335 0.0 0.0 0.03 0.68 0.09 93 1013.2
20260509074520 66 335 0.0 0.0 0.03 0.68 0.09 93 1013.0
20260509073034 67 335 1.0 4.0 0.03 0.68 0.08 93 1013.3
20260509071526 67 358 3.0 5.0 0.03 0.67 0.07 93 1012.8
20260509070012 66 120 1.0 2.0 0.03 0.66 0.06 93 1011.7
20260509064516 67 222 0.0 0.0 0.03 0.66 0.06 93 1012.3
20260509063028 67 222 0.0 2.0 0.03 0.65 0.05 93 1012.6
20260509061525 67 317 0.0 0.0 0.03 0.64 0.04 93 1012.9
20260509060029 67 317 0.0 2.0 0.03 0.63 0.03 93 1013.0
20260509054514 67 212 0.0 2.0 0.04 0.63 0.03 92 1013.1
20260509053029 67 359 1.0 3.0 0.04 0.62 0.02 92 1013.4
20260509051524 68 115 0.0 2.0 0.04 0.62 0.01 92 1013.0
20260509050026 68 331 1.0 4.0 0.03 0.61 0.00 92 1013.5
20260509044527 68 235 0.0 2.0 0.03 0.60 0.60 92 1013.1
20260509043035 68 342 0.0 2.0 0.03 0.58 0.58 92 1012.9
20260509041522 68 131 1.0 3.0 0.03 0.58 0.58 92 1012.0
20260509040009 68 98 0.0 5.0 0.04 0.58 0.58 92 1011.7
20260509034509 68 82 0.0 7.0 0.04 0.57 0.57 92 1011.8
20260509033014 68 115 4.0 8.0 0.04 0.56 0.56 92 1011.4
20260509031522 67 136 2.0 5.0 0.04 0.55 0.55 93 1012.1
20260509030005 68 105 0.0 3.0 0.04 0.55 0.54 93 1013.1
20260509024511 68 101 1.0 5.0 0.04 0.54 0.52 93 1013.0
20260509023011 68 113 3.0 6.0 0.04 0.52 0.52 93 1013.0
20260509021518 67 62 2.0 6.0 0.04 0.52 0.51 93 1013.5
20260509020024 67 72 2.0 4.0 0.04 0.51 0.50 93 1014.3
20260509014515 67 127 0.0 2.0 0.04 0.50 0.49 93 1014.4
20260509013012 66 95 1.0 2.0 0.05 0.50 0.48 93 1014.6
20260509011515 66 209 0.0 4.0 0.05 0.49 0.47 93 1014.9
20260509010028 66 68 1.0 3.0 0.05 0.48 0.46 93 1014.0
20260509004523 66 105 0.0 2.0 0.05 0.47 0.45 93 1014.2
20260509003015 66 149 0.0 3.0 0.04 0.45 0.43 92 1014.1